Location: Days
(41.3591°N, 106.7339°W)
Time: 10:50:34
(UTC+00:00)

O/OREOS (USA 219) - Pass Details

Date: 04 July 2022
Orbit: 621 x 646 km, 72.0° (Epoch: 22 May)

Event Time Altitude Azimuth Distance (km) Brightness Sun altitude
Rises 06:41:09 0° 341° (NNW) 2,964 ? -25.4°
Reaches altitude 10° 06:43:29 10° 347° (NNW) 2,052 ? -25.4°
Maximum altitude 06:48:01 54° 64° (ENE) 790 ? -25.5°
Enters shadow 06:48:06 54° 70° (ENE) 791 ? -25.5°
